Regional Weather Roundup
Issued by NWS

Home | Current Version | Previous Version | Graphics & Text | Print | Product List | Glossary On
Versions: 1 2 3 4 5 6 7 8 9 10 11 12 13 14 15 16 17 18 19 20 21 22 23 24 25 26 27 28 29 30 31 32 33 34 35 36 37 38 39 40 41 42 43 44 45 46 47 48 49 50
000
ASUS43 KTOP 240308
RWRKS

WEATHER ROUNDUP FOR KANSAS
NATIONAL WEATHER SERVICE GOODLAND KS
900 PM CST FRI FEB 23 2018

NOTE:  "FAIR" INDICATES FEW OR NO CLOUDS BELOW 12,000 FEET WITH NO
SIGNIFICANT WEATHER AND/OR OBSTRUCTIONS TO VISIBILITY.

KSZ001>006-013>018-027>032-041>047-240400-
NORTHWEST KANSAS

CITY           SKY/WX    TMP DP  RH WIND       PRES   REMARKS
GOODLAND       PTCLDY    22  19  89 SE14      30.01S WCI   9
HAYS           CLOUDY    31  25  78 E10       30.12S WCI  22
HILL CITY      CLOUDY    24  20  84 E9        30.12S
RUSSELL        CLOUDY    34  28  79 E12       30.12S WCI  25
$$

KSZ061>065-074>080-084>089-240400-
SOUTHWEST KANSAS

CITY           SKY/WX    TMP DP  RH WIND       PRES   REMARKS
DODGE CITY     CLOUDY    29  26  89 E10       30.05F WCI  20
ELKHART        FOG       31  31 100 E14       29.97F VSB 1/2 WCI  20
GARDEN CITY    CLOUDY    27  25  92 E10       30.04S FOG     WCI  17
GREAT BEND     CLOUDY    30  27  88 E9        30.13S
LIBERAL        MIX PCPN  29  29 100 E10       30.03S VSB 3/4 WCI  20
PRATT          CLOUDY    29  27  92 E8        30.10F
$$

KSZ066>073-081>083-090>101-240400-
SOUTHEAST KANSAS

CITY           SKY/WX    TMP DP  RH WIND       PRES   REMARKS
CHANUTE        LGT RAIN  37  36  96 NE9       30.14F FOG
COFFEYVILLE    LGT RAIN  39  38  96 NE10      30.11F FOG     WCI  32
HUTCHINSON     CLOUDY    31  30  96 NE8       30.12F
MEDICINE LODGE   N/A     31  31 100 NE8       30.09F
NEWTON         LGT SNOW  30  29  96 E10       30.13F FOG     WCI  21
PARSONS        LGT RAIN  38  38 100 NE10      30.12F WCI  31
WICHITA INTL   LGT RAIN  32  32 100 NE12      30.12F FOG     WCI  23
WICHITA JABRA  MIX PCPN  31  31 100 NE12      30.12S FOG     WCI  22
WICHITA MCCONL MIX PCPN  32  32 100 NE8       30.11  FOG
WINFIELD       CLOUDY    34  34 100 NE8       30.11F FOG
$$

KSZ007>012-019>026-033>040-048>060-102>105-240400-
NORTHEAST KANSAS

CITY           SKY/WX    TMP DP  RH WIND       PRES   REMARKS
CONCORDIA      CLOUDY    31  26  82 NE9       30.18R
EMPORIA        MIX PCPN  31  29  92 NE10      30.16S FOG     WCI  22
LAWRENCE       CLOUDY    34  30  85 NE8       30.22S
MANHATTAN      CLOUDY    35  29  78 E6        30.19F
MARYSVILLE     CLOUDY    32  28  86 NE6       30.21S
OLATHE IND     CLOUDY    33  31  92 NE8       30.20F
OLATHE EXE     MIX PCPN  32  31  96 NE9       30.19F
SALINA         CLOUDY    34  28  79 E8        30.17S
TOPEKA BILLARD CLOUDY    34  31  88 E5        30.21F
TOPEKA FORBES  CLOUDY    34  30  85 NE6       30.19F
$$



USA.gov is the U.S. government's official web portal to all federal, state and local government web resources and services.